Location: Eaton
(41.3139°N, 82.0207°W)
Time: 12:02:00
(UTC+00:00)

CZ-4 R/B - Pass Details

Date: 17 June 2021
Orbit: 681 x 752 km, 98.5° (Epoch: 26 July)

Event Time Altitude Azimuth Distance (km) Brightness Sun altitude
Rises 06:38:34 0° 11° (N) 3,053 8.5 -23.3°
Reaches altitude 10° 06:40:48 10° 9° (N) 2,135 7.4 -23.2°
Maximum altitude 06:45:27 72° 286° (WNW) 727 3.8 -22.9°
Enters shadow 06:46:04 62° 235° (SW) 776 3.7 -22.9°
